Location: Dappach
(48.9767°N, 9.6998°E)
Time: 20:50:16
(UTC+00:00)

Cosmos 1833 Rocket - Pass Details

Date: 23 May 2024
Orbit: 831 x 840 km, 71.0° (Epoch: 24 June)

Event Time Altitude Azimuth Distance (km) Brightness Sun altitude
Exits shadow 00:07:59 20° 245° (WSW) 1,858 4.1 -19.5°
Maximum altitude 00:11:33 43° 307° (NW) 1,164 3.6 -19.4°
Drops below altitude 10° 00:16:54 10° 19° (NNE) 2,454 6.4 -19.2°
Sets 00:19:29 0° 26° (NNE) 3,393 7.4 -19.0°
